Regional Weather Roundup
Issued by NWS

Home | Current Version | Previous Version | Graphics & Text | Print | Product List | Glossary On
Versions: 1 2 3 4 5 6 7 8 9 10 11 12 13 14 15 16 17 18 19 20 21 22 23 24 25 26 27 28 29 30 31 32 33 34 35 36 37 38 39 40 41 42 43 44 45 46 47 48 49 50
000
ASUS45 KABQ 180510
RWRNM
WEATHER ROUNDUP FOR NEW MEXICO
NATIONAL WEATHER SERVICE ALBUQUERQUE NM
1100 PM MDT WED SEP 17 2014

NOTE: "FAIR" MEANS FEW OR NO CLOUDS BELOW 12,000 FEET AGL WITH NO
       SIGNIFICANT WEATHER OR OBSTRUCTIONS TO VISION.

      THIS PRODUCT IS RELEASED AS TWO VERSIONS.  ONE VERSION NEAR
      THE TOP OF THE HOUR CONTAINING PRELIMINARY DATA FROM ALBUQUERQUE
      AND OTHER STATIONS.  A FINAL VERSION WITH ADDITIONAL DATA IS
      ISSUED ABOUT 10 MINUTES AFTER THE HOUR.

NMZ501-503-504-510>518-180600-
NORTHWEST PLATEAU/NORTHCENTRAL MOUNTAINS

CITY           SKY/WX    TMP DP  RH WIND       PRES   REMARKS
FARMINGTON     CLEAR     67  47  48 E6        30.11S
LOS ALAMOS     PTCLDY    64  39  40 CALM      30.24R
SANTA FE       MOCLDY    62  49  62 CALM      30.17S
TAOS           PTCLDY    50  45  81 N3        30.24S
ANGEL FIRE     FAIR      37  33  87 CALM      30.33S

$$
NMZ402-403-502-505>509-180600-
WESTCENTRAL MOUNTAINS/SOUTHWEST MOUNTAINS

CITY           SKY/WX    TMP DP  RH WIND       PRES   REMARKS
GALLUP         PTCLDY    58  44  60 NE5       30.17S
GRANTS         CLOUDY    57  52  82 S5        30.18F
SILVER CITY    LGT RAIN  63  59  88 NE5       30.13S

$$
NMZ407-409-411-412-180600-
SOUTHERN DESERTS

CITY           SKY/WX    TMP DP  RH WIND       PRES   REMARKS
LORDSBURG      LGT RAIN  61  59  94 E7        30.03F
DEMING         LGT RAIN  66  61  84 N9        30.03F
LAS CRUCES     CLOUDY    65  64  93 CALM      30.07R
HOLLOMAN AFB   CLOUDY    69  69 100 CALM      30.04R
ALAMOGORDO     LGT RAIN  68  66  94 CALM      30.07R
T OR C         LGT RAIN  67  65  93 NW5       30.07S

$$
NMZ519>523-180600-
CENTRAL VALLEYS/CENTRAL HIGHLANDS

CITY           SKY/WX    TMP DP  RH WIND       PRES   REMARKS
ALBUQUERQUE    CLOUDY    65  59  81 SE3       30.12F
DOUBLE EAGLE   CLOUDY    60  58  92 CALM      30.15S
MORIARTY ARPT  CLOUDY    58  55  88 CALM      30.17F
CLINES CORNERS CLOUDY    59  50  72 N3        30.20S
BELEN          FAIR      63  60  93 CALM      30.11F
SOCORRO        CLOUDY    66  62  89 N7        30.09S

$$
NMZ524>526-539-540-180600-
SOUTHCENTRAL MOUNTAINS

CITY           SKY/WX    TMP DP  RH WIND       PRES   REMARKS
RUIDOSO        CLOUDY    59  59 100 W3        30.23R

$$
NMZ527>531-180600-
NORTHEAST HIGHLANDS/NORTHEAST PLAINS

CITY           SKY/WX    TMP DP  RH WIND       PRES   REMARKS
LAS VEGAS      CLOUDY    57  50  77 N5        30.20S
RATON          CLEAR     55  49  80 NE5       30.16S
CLAYTON        PTCLDY    62  51  67 W7        30.08R

$$
NMZ532>537-180600-
EASTCENTRAL PLAINS

CITY           SKY/WX    TMP DP  RH WIND       PRES   REMARKS
TUCUMCARI      MOCLDY    66  59  78 S6        30.03S
CANNON AFB     MOCLDY    64  64 100 SE3       30.07S
CLOVIS AIRPORT   N/A     64  63  94 SE3       30.09S

$$
NMZ028-029-538-180600-
SOUTHEAST PLAINS

CITY           SKY/WX    TMP DP  RH WIND       PRES   REMARKS
ROSWELL        MOCLDY    69  65  86 SW6       30.01S
CARLSBAD       CLOUDY    72  72 100 N6        29.99R
HOBBS          MOCLDY    66  66 100 E15       30.04S


$$


USA.gov is the U.S. government's official web portal to all federal, state and local government web resources and services.